Starlink 32642

operational
NORAD ID: 62211 Int'l Des: 2024-229 Owner: SPXS Country: US Constellation: starlink
LEOCIRCULAR

About Starlink 32642

Description loading...

Live Position

Loading 3D Globe...

Upcoming Passes

Altitude History

Altitude vs Time

uPlot chart will show altitude changes over time

Two-Line Element Set

1 62211U 24229V 25303.24140170 .00027811 00000-0 10161-2 0 9993
2 62211 43.0007 287.1939 0001248 249.9733 110.0984 15.27587763 50615
Epoch: Oct 30, 2025 • Age: 22 hours

Current Status

Altitude 486.8 km
Velocity 7.63 km/s
Sub-Earth Point 43.07°N, 85.89°W
Launch Date Dec 4, 2024
Age 0.9 years
Type internet

Technical Details

Classification Payload
Mass 730.00 kg
Dry Mass 700.00 kg
Total Mass 730.00 kg
Length 0.30 m
Diameter 4.10 m
Span 29.00 m
Shape Box + pan
Manufacturer SPXS
Bus Type Starlink V2M
Phase Status In Orbit
Owner/State SPXS/US

Large Constellations

Loading constellations...